| time (UTC) | temp F | wind direction | speed MPH | gust MPH | rain 1hr in | rain 24hr in | rain mn in | humidity % | barometer mb |
| 20260504221546 | 82 | 105 | 2.0 | 6.0 | 0.00 | 0.00 | 0.00 | 27 | 1001.8 |
| 20260504220045 | 82 | 152 | 3.0 | 7.0 | 0.00 | 0.00 | 0.00 | 28 | 1002.0 |
| 20260504214545 | 82 | 122 | 2.0 | 7.0 | 0.00 | 0.00 | 0.00 | 28 | 1002.1 |
| 20260504213037 | 82 | 92 | 2.0 | 8.0 | 0.00 | 0.00 | 0.00 | 26 | 1002.2 |
| 20260504211546 | 82 | 46 | 3.0 | 7.0 | 0.00 | 0.00 | 0.00 | 28 | 1002.3 |
| 20260504210059 | 82 | 154 | 3.0 | 8.0 | 0.00 | 0.00 | 0.00 | 26 | 1002.4 |
| 20260504204549 | 83 | 66 | 2.0 | 5.0 | 0.00 | 0.00 | 0.00 | 25 | 1002.6 |
| 20260504203104 | 84 | 103 | 1.0 | 6.0 | 0.00 | 0.00 | 0.00 | 24 | 1002.7 |
| 20260504201547 | 84 | 127 | 2.0 | 7.0 | 0.00 | 0.00 | 0.00 | 28 | 1002.9 |
| 20260504200045 | 83 | 43 | 2.0 | 4.0 | 0.00 | 0.00 | 0.00 | 24 | 1003.0 |
| 20260504194545 | 82 | 93 | 3.0 | 7.0 | 0.00 | 0.00 | 0.00 | 26 | 1003.2 |
| 20260504193043 | 83 | 106 | 2.0 | 8.0 | 0.00 | 0.00 | 0.00 | 26 | 1003.2 |
| 20260504191543 | 84 | 90 | 3.0 | 7.0 | 0.00 | 0.00 | 0.00 | 24 | 1003.3 |
| 20260504190054 | 82 | 146 | 2.0 | 8.0 | 0.00 | 0.00 | 0.00 | 27 | 1003.5 |
| 20260504184545 | 82 | 82 | 3.0 | 6.0 | 0.00 | 0.00 | 0.00 | 26 | 1003.7 |
| 20260504183045 | 82 | 356 | 2.0 | 7.0 | 0.00 | 0.00 | 0.00 | 24 | 1003.7 |
| 20260504181544 | 83 | 109 | 3.0 | 8.0 | 0.00 | 0.00 | 0.00 | 24 | 1003.7 |
| 20260504180043 | 82 | 21 | 3.0 | 9.0 | 0.00 | 0.00 | 0.00 | 26 | 1003.7 |
| 20260504174539 | 81 | 38 | 3.0 | 9.0 | 0.00 | 0.00 | 0.00 | 28 | 1003.9 |
| 20260504173044 | 78 | 25 | 3.0 | 7.0 | 0.00 | 0.00 | 0.00 | 31 | 1004.0 |
| 20260504171546 | 79 | 11 | 3.0 | 10.0 | 0.00 | 0.00 | 0.00 | 30 | 1004.0 |
| 20260504081559 | 50 | 0 | 0.0 | 1.0 | 0.00 | 0.00 | 0.00 | 74 | 1004.1 |
| 20260504044545 | 61 | 70 | 1.0 | 5.0 | 0.00 | 0.00 | 0.00 | 50 | 1005.8 |
| 20260504043107 | 62 | 39 | 2.0 | 6.0 | 0.00 | 0.00 | 0.00 | 49 | 1006.0 |
| 20260504041539 | 63 | 13 | 2.0 | 6.0 | 0.00 | 0.00 | 0.00 | 47 | 1006.1 |
| 20260504040053 | 62 | 40 | 2.0 | 7.0 | 0.00 | 0.00 | 0.00 | 49 | 1006.4 |
| 20260504034545 | 62 | 337 | 2.0 | 6.0 | 0.00 | 0.00 | 0.00 | 50 | 1006.6 |
| 20260504033048 | 63 | 20 | 2.0 | 4.0 | 0.00 | 0.00 | 0.00 | 49 | 1006.5 |
| 20260504031546 | 64 | 15 | 2.0 | 6.0 | 0.00 | 0.00 | 0.00 | 48 | 1006.5 |
| 20260504030043 | 64 | 325 | 2.0 | 5.0 | 0.00 | 0.00 | 0.00 | 47 | 1006.5 |
| 20260504024550 | 66 | 342 | 2.0 | 7.0 | 0.00 | 0.00 | 0.00 | 46 | 1006.4 |
| 20260504023045 | 69 | 48 | 3.0 | 6.0 | 0.00 | 0.00 | 0.00 | 43 | 1006.4 |
| 20260504021544 | 70 | 12 | 2.0 | 8.0 | 0.00 | 0.00 | 0.00 | 38 | 1006.4 |
| 20260504020046 | 72 | 49 | 2.0 | 5.0 | 0.00 | 0.00 | 0.00 | 36 | 1006.3 |
| 20260504014554 | 72 | 19 | 1.0 | 7.0 | 0.00 | 0.00 | 0.00 | 36 | 1006.7 |
| 20260504013043 | 73 | 359 | 2.0 | 6.0 | 0.00 | 0.00 | 0.00 | 35 | 1005.9 |
| 20260504011540 | 74 | 15 | 1.0 | 6.0 | 0.00 | 0.00 | 0.00 | 33 | 1005.7 |
| 20260504010057 | 76 | 87 | 1.0 | 2.0 | 0.00 | 0.00 | 0.00 | 31 | 1005.8 |
| 20260504004545 | 79 | 337 | 1.0 | 2.0 | 0.00 | 0.00 | 0.00 | 24 | 1005.5 |
| 20260504003044 | 80 | 0 | 1.0 | 4.0 | 0.00 | 0.00 | 0.00 | 21 | 1005.7 |
| 20260504001548 | 81 | 146 | 1.0 | 5.0 | 0.00 | 0.00 | 0.00 | 21 | 1005.6 |
| 20260504000045 | 83 | 225 | 2.0 | 6.0 | 0.00 | 0.00 | 0.00 | 19 | 1005.9 |
| 20260503234539 | 81 | 6 | 1.0 | 5.0 | 0.00 | 0.00 | 0.00 | 20 | 1006.0 |
| 20260503233052 | 83 | 276 | 2.0 | 8.0 | 0.00 | 0.00 | 0.00 | 19 | 1006.0 |
| 20260503231545 | 84 | 200 | 2.0 | 6.0 | 0.00 | 0.00 | 0.00 | 16 | 1005.9 |
| 20260503230044 | 85 | 148 | 4.0 | 10.0 | 0.00 | 0.00 | 0.00 | 17 | 1006.0 |
| 20260503224545 | 84 | 236 | 2.0 | 9.0 | 0.00 | 0.00 | 0.00 | 16 | 1006.1 |
| 20260503223041 | 84 | 186 | 2.0 | 10.0 | 0.00 | 0.00 | 0.00 | 18 | 1006.5 |